Regional Weather Roundup
Issued by NWS

Home | Current Version | Previous Version | Text Only | Print | Product List | Glossary Off
Versions: 1 2 3 4 5 6 7 8 9 10 11 12 13 14 15 16 17 18 19 20 21 22 23 24 25 26 27 28 29 30 31 32 33 34 35 36 37 38 39 40 41 42 43 44 45 46 47 48 49 50

000
ASUS43 KDTX 230310
RWRMI
MICHIGAN HOURLY REGIONAL WEATHER ROUNDUP
NATIONAL WEATHER SERVICE DETROIT/PONTIAC MI
1100 PM EDT WED OCT 22 2014

NOTE: "FAIR" INDICATES FEW OR NO CLOUDS BELOW 12,000 FEET WITH NO
SIGNIFICANT WEATHER AND/OR OBSTRUCTION TO VISIBILITY.

MIZ047>049-052>055-059>063-066>070-074>076-081>083-230400-
SOUTHEAST LOWER MICHIGAN

CITY           SKY/WX    TMP DP  RH WIND       PRES   REMARKS
ADRIAN         CLEAR     39  36  89 N6        30.28F WCI  35
ALMA           CLOUDY    43  37  80 CALM      30.31S
ANN ARBOR      CLEAR     41  36  82 N5        30.28F
BAD AXE          N/A     31  31 100 CALM      30.31S FOG
CARO           CLEAR     32  32  99 CALM      30.30F
DETROIT CITY   CLEAR     45  37  73 NE7       30.29F
DETROIT        PTCLDY    43  38  82 N5        30.29S
FLINT          CLEAR     39  35  86 NE3       30.31S
GROSSE ILE     CLEAR     45  41  87 N3        30.27S
HILLSDALE      CLEAR     34  33  99 CALM      30.28R
HOWELL         CLEAR     38  37  96 N3        30.28F

CITY           SKY/WX    TMP DP  RH WIND       PRES   REMARKS
JACKSON        CLEAR     33  31  92 CALM      30.29S
LAMBERTVILLE   CLEAR     43  37  81 CALM      30.28S
LANSING        MOCLDY    40  35  83 E6        30.30F
LAPEER         FAIR      35  34  96 N5        30.29F WCI  31
MASON          CLEAR     35  34  96 CALM      30.29S
MONROE         CLEAR     43  39  87 N6        30.26S
MT. CLEMENS    CLEAR     39  38  97 N7        30.26F WCI  34
PONTIAC        CLEAR     40  37  89 N6        30.27F
PORT HOPE        N/A     36  34  92 CALM      30.29S
PORT HURON     CLEAR     37  36  93 NW5       30.29S WCI  34
TRI CITIES     CLEAR     41  35  79 S3        30.32S
TROY           CLEAR     44  39  82 CALM      30.30S
SAGINAW HB     CLEAR     37  37 100 CALM      30.31S
$$
MIZ043>046-050>051-056>058-064>065-071>073-077>080-230400-
SOUTHWEST LOWER MICHIGAN

CITY           SKY/WX    TMP DP  RH WIND       PRES   REMARKS
BATTLE CREEK   CLEAR     37  32  82 CALM      30.29S
BENTON HARBOR  CLEAR     34  34 100 E3        30.29R FOG
BIG RAPIDS     CLEAR     33  33 100 CALM      30.29S
COLDWATER      CLEAR     35  35  97 CALM      30.29R FOG
FREMONT        FAIR      36  35  96 CALM      30.29S
HOLLAND        CLEAR     39  35  86 E3        30.30S
GRAND RAPIDS   CLEAR     38  35  89 CALM      30.30S
IONIA          CLOUDY    43  38  82 CALM      30.30R
KALAMAZOO      CLEAR     36  33  89 CALM      30.29F
LUDINGTON      CLEAR     31  30  96 CALM      30.29F FOG
MARSHALL       CLEAR     34  34  97 CALM      30.29R FOG
MOUNT PLEASANT CLEAR     32  32  98 CALM      30.30S FOG
MUSKEGON       CLEAR     35  31  85 SE5       30.30S WCI  31
SOUTH HAVEN    CLEAR     36  35  97 CALM      30.29S
$$
MIZ016>042-230400-
NORTHERN LOWER MICHIGAN

CITY           SKY/WX    TMP DP  RH WIND       PRES   REMARKS
ALPENA         CLEAR     31  30  96 W3        30.31S
BEAVER ISLAND  CLEAR     30  30  99 CALM      30.28F
BELLAIRE       MOCLDY    31  30  96 CALM      30.30S FOG
CADILLAC       CLEAR     27  26  97 CALM      30.27F
CHARLEVOIX     CLEAR     33  33 100 CALM      30.32S
FRANKFORT      CLEAR     31  28  90 CALM      30.29R
GAYLORD        CLEAR     30  28  92 CALM      30.28S
GRAYLING       CLEAR     29  29  99 CALM      30.30R FOG
HARBOR SPRINGS CLEAR     33  32  93 CALM      30.29F
HOUGHTON LAKE  CLEAR     29  27  92 CALM      30.30S
MANISTEE       CLEAR     28  27  93 CALM      30.30R
OSCODA         CLEAR     29  28  96 CALM      30.30F
PELLSTON       CLEAR     28  27  96 CALM      30.30S
TRAVERSE CITY  CLEAR     34  31  88 CALM      30.28S
$$
MIZ007>008-015-230400-
EASTERN UPPER MICHIGAN

CITY           SKY/WX    TMP DP  RH WIND       PRES   REMARKS
KINROSS        CLEAR     36  34  93 S3        30.29S
MACKINAC ISLAN CLEAR     41  36  80 SE7       30.29S
NEWBERRY       CLEAR     34  32  92 S6        30.27S WCI  29
S. S. MARIE    CLEAR     36  30  79 E5        30.28F WCI  32
MUNISING         N/A     38  33  82 S7        30.24S WCI  33
$$
MIZ004>006-011>014-085-230400-
CENTRAL UPPER MICHIGAN

CITY           SKY/WX    TMP DP  RH WIND       PRES   REMARKS
MANISTIQUE     CLEAR     41  37  84 S6        30.27S
ESCANABA       CLEAR     37  32  81 S6        30.25F WCI  33
MENOMINEE      CLEAR     39  36  87 S5        30.25F
SAWYER-GWINN   PTCLDY    35  34  96 S10       30.22F WCI  27
$$
MIZ001>003-009>011-084-230400-
WESTERN UPPER MICHIGAN

CITY           SKY/WX    TMP DP  RH WIND       PRES   REMARKS
IRON MOUNTAIN  CLEAR     36  33  89 SE6       30.22S WCI  31
HOUGHTON       CLEAR     41  32  70 SE9       30.14S
COPPER HARBOR    N/A     45  38  76 SW13G22   30.13F
IRONWOOD       MOCLDY    50  34  53 S7G22     30.07F
$$

ABBREVIATIONS USED IN REMARKS
   TC - TEMPERATURE IN CELSIUS
  WCI - WIND CHILL INDEX
   HX - HEAT INDEX
  VSB - VISIBILITY




USA.gov is the U.S. government's official web portal to all federal, state and local government web resources and services.